FW6934 Weather Reports


time (UTC)temp
C
wind
direction
speed
KPH
gust
KPH
rain 1hr
cm
rain 24hr
cm
rain mn
cm
humidity
%
barometer
mb
20260506025523 16 348 0.0 0.0 0.00 0.00 0.00 76 1003.3
20260506025012 16 348 0.0 0.0 0.00 0.00 0.00 76 1003.2
20260506024541 16 348 0.0 0.0 0.00 0.00 0.00 76 1003.2
20260506024015 16 348 0.0 0.0 0.00 0.00 0.00 75 1003.1
20260506023502 16 348 0.0 1.6 0.00 0.00 0.00 74 1003.1
20260506023022 16 348 0.0 1.6 0.00 0.00 0.00 74 1003.2
20260506022513 16 350 0.0 1.6 0.00 0.00 0.00 74 1003.0
20260506022058 16 350 0.0 1.6 0.00 0.00 0.00 73 1003.0
20260506021529 17 350 0.0 1.6 0.00 0.00 0.00 72 1003.1
20260506021019 17 355 0.0 3.2 0.00 0.00 0.00 72 1003.2
20260506020502 17 346 0.0 3.2 0.00 0.00 0.00 72 1003.2
20260506020023 17 355 0.0 4.8 0.00 0.00 0.00 71 1003.2
20260506015514 17 24 1.6 4.8 0.00 0.00 0.00 70 1003.2
20260506015103 17 34 0.0 3.2 0.00 0.00 0.00 70 1003.1
20260506014518 17 355 0.0 0.0 0.00 0.00 0.00 69 1003.1
20260506014004 18 355 0.0 4.8 0.00 0.00 0.00 69 1003.1
20260506013555 18 355 1.6 6.4 0.00 0.00 0.00 69 1003.1
20260506013026 18 34 3.2 6.4 0.00 0.00 0.00 69 1003.1
20260506012514 18 70 1.6 6.4 0.00 0.00 0.00 68 1003.1
20260506012002 18 360 3.2 8.0 0.00 0.00 0.00 69 1003.1
20260506011530 18 44 3.2 8.0 0.00 0.00 0.00 69 1003.1
20260506011015 18 30 4.8 8.0 0.00 0.00 0.00 69 1003.2
20260506010502 18 342 3.2 4.8 0.00 0.00 0.00 69 1003.2
20260506010024 17 301 1.6 8.0 0.00 0.00 0.00 68 1003.2
20260506005508 17 17 1.6 9.7 0.00 0.00 0.00 69 1003.2
20260506005054 17 346 3.2 8.0 0.00 0.00 0.00 72 1003.1
20260506004515 18 59 4.8 9.7 0.00 0.00 0.00 68 1003.1
20260506004004 18 44 3.2 9.7 0.00 0.00 0.00 69 1003.2
20260506003557 18 10 0.0 4.8 0.00 0.00 0.00 68 1003.1
20260506003015 17 34 0.0 1.6 0.00 0.00 0.00 69 1003.1
20260506002503 17 5 0.0 0.0 0.00 0.00 0.00 70 1003.1
20260506002052 17 5 0.0 0.0 0.00 0.00 0.00 72 1003.2
20260506001509 17 317 0.0 0.0 0.00 0.00 0.00 70 1003.2
20260506001100 18 42 0.0 1.6 0.00 0.00 0.00 69 1003.3
20260506000547 18 44 0.0 6.4 0.00 0.00 0.00 70 1003.4
20260506000014 18 30 3.2 6.4 0.00 0.00 0.00 69 1003.3
20260505235503 18 29 1.6 4.8 0.00 0.00 0.00 70 1003.4
20260505235053 18 63 1.6 6.4 0.00 0.00 0.00 69 1003.4
20260505234517 18 296 1.6 6.4 0.00 0.00 0.00 70 1003.4
20260505234056 18 294 1.6 6.4 0.00 0.00 0.00 69 1003.5
20260505233543 17 5 0.0 4.8 0.00 0.00 0.00 69 1003.5
20260505233101 17 355 0.0 6.4 0.00 0.00 0.00 69 1003.6
20260505232548 17 44 1.6 8.0 0.00 0.00 0.00 69 1003.7
20260505232041 17 279 1.6 8.0 0.00 0.00 0.00 70 1003.6
20260505231608 17 360 0.0 9.7 0.00 0.00 0.00 70 1003.7
20260505231047 17 334 4.8 9.7 0.00 0.00 0.00 72 1003.6
20260505230535 17 46 4.8 9.7 0.00 0.00 0.00 72 1003.7
20260505230004 17 307 1.6 8.0 0.00 0.00 0.00 71 1003.7
20260505225554 17 319 3.2 9.7 0.00 0.00 0.00 71 1003.8
20260505225043 17 9 3.2 9.7 0.00 0.00 0.00 71 1003.8
20260505224503 17 296 4.8 8.0 0.00 0.00 0.00 72 1003.8
20260505224054 17 77 1.6 9.7 0.00 0.00 0.00 73 1003.8
20260505223542 17 45 4.8 9.7 0.00 0.00 0.00 72 1003.9
20260505223011 17 74 3.2 6.4 0.00 0.00 0.00 71 1003.8
20260505222605 17 198 1.6 8.0 0.00 0.00 0.00 71 1003.9
20260505222051 17 256 3.2 11.3 0.00 0.00 0.00 72 1003.9
20260505221510 17 286 3.2 8.0 0.00 0.00 0.00 71 1003.9
20260505221059 16 82 1.6 6.4 0.00 0.00 0.00 72 1004.0
20260505220548 16 49 1.6 6.4 0.00 0.00 0.00 71 1004.1
20260505220016 16 21 1.6 6.4 0.00 0.00 0.00 70 1004.1
20260505215503 16 161 3.2 4.8 0.00 0.00 0.00 74 1004.0
20260505215053 16 313 0.0 3.2 0.00 0.00 0.00 72 1004.0
20260505214523 16 313 0.0 4.8 0.00 0.00 0.00 72 1004.2
20260505214002 16 313 3.2 8.0 0.00 0.00 0.00 73 1004.2
20260505213554 16 292 0.0 8.0 0.00 0.00 0.00 73 1004.2
20260505213018 16 299 4.8 9.7 0.00 0.00 0.00 74 1004.1
20260505212503 16 5 1.6 4.8 0.00 0.00 0.00 74 1004.2
20260505212053 16 19 1.6 8.0 0.00 0.00 0.00 74 1004.1
20260505211513 16 104 3.2 9.7 0.00 0.00 0.00 75 1004.2
20260505211002 16 31 3.2 6.4 0.00 0.00 0.00 74 1004.2
20260505210551 16 39 3.2 9.7 0.00 0.00 0.00 73 1004.2
20260505210010 16 41 3.2 9.7 0.00 0.00 0.00 74 1004.2
20260505205601 16 5 1.6 9.7 0.00 0.00 0.00 72 1004.3
20260505205050 16 355 4.8 9.7 0.00 0.00 0.00 73 1004.2
20260505204517 16 328 3.2 9.7 0.00 0.00 0.00 74 1004.3
20260505204002 16 328 1.6 4.8 0.00 0.00 0.00 74 1004.3
20260505203551 16 325 1.6 4.8 0.00 0.00 0.00 73 1004.3
20260505203012 16 338 3.2 6.4 0.00 0.00 0.00 72 1004.3
20260505202604 16 24 3.2 6.4 0.00 0.00 0.00 73 1004.4
20260505202050 16 32 1.6 4.8 0.00 0.00 0.00 73 1004.4
20260505201512 16 113 1.6 4.8 0.00 0.00 0.00 73 1004.5
20260505201100 16 185 1.6 4.8 0.00 0.00 0.00 74 1004.5
20260505200547 15 178 0.0 8.0 0.00 0.00 0.00 73 1004.6
20260505200004 15 229 4.8 9.7 0.00 0.00 0.00 73 1004.4
20260505195557 15 321 3.2 8.0 0.00 0.00 0.00 74 1004.5
20260505195043 15 296 1.6 8.0 0.00 0.00 0.00 73 1004.5
20260505194505 15 279 1.6 12.9 0.00 0.00 0.00 74 1004.5
20260505194056 15 226 1.6 8.0 0.00 0.00 0.00 74 1004.5
20260505193542 15 107 1.6 6.4 0.00 0.00 0.00 73 1004.5
20260505193002 15 169 0.0 3.2 0.00 0.00 0.00 74 1004.4
20260505192552 15 169 1.6 11.3 0.00 0.00 0.00 75 1004.5
20260505192041 15 168 4.8 11.3 0.00 0.00 0.00 74 1004.5
20260505191501 15 273 1.6 8.0 0.00 0.00 0.00 74 1004.5
20260505191052 15 269 3.2 6.4 0.00 0.00 0.00 73 1004.5
20260505190539 15 306 1.6 6.4 0.00 0.00 0.00 73 1004.5
20260505190100 15 309 1.6 9.7 0.00 0.00 0.00 73 1004.5
20260505185549 15 302 4.8 9.7 0.00 0.00 0.00 73 1004.4
20260505185037 15 219 1.6 8.0 0.00 0.00 0.00 74 1004.5
20260505184600 15 163 0.0 8.0 0.00 0.00 0.00 74 1004.5
20260505184049 15 174 1.6 4.8 0.00 0.00 0.00 76 1004.4
20260505183539 15 289 0.0 4.8 0.00 0.00 0.00 75 1004.4
20260505183107 15 289 0.0 4.8 0.00 0.00 0.00 74 1004.4
20260505182549 15 326 0.0 3.2 0.00 0.00 0.00 75 1004.4
20260505182040 15 221 0.0 8.0 0.00 0.00 0.00 75 1004.4
20260505181503 15 307 4.8 8.0 0.00 0.00 0.00 75 1004.3
20260505181053 15 236 0.0 6.4 0.00 0.00 0.00 74 1004.3
20260505180541 15 196 0.0 8.0 0.00 0.00 0.00 75 1004.3
20260505180105 15 201 1.6 8.0 0.00 0.00 0.00 76 1004.3
20260505175543 15 323 3.2 8.0 0.00 0.00 0.00 75 1004.2
20260505175032 15 273 3.2 6.4 0.00 0.00 0.00 77 1004.3
20260505174557 14 161 1.6 4.8 0.00 0.00 0.00 76 1004.2
20260505174035 14 178 0.0 4.8 0.00 0.00 0.00 78 1004.3
20260505173509 14 269 1.6 3.2 0.00 0.00 0.00 78 1004.2
20260505173014 13 136 0.0 3.2 0.00 0.00 0.00 79 1004.2
20260505172559 13 153 0.0 6.4 0.00 0.00 0.00 80 1004.3
20260505172050 13 169 1.6 8.0 0.00 0.00 0.00 80 1004.2
20260505171509 13 19 1.6 6.4 0.00 0.00 0.00 80 1004.1
20260505171059 13 242 3.2 8.0 0.00 0.00 0.00 81 1004.2
20260505170546 13 306 1.6 8.0 0.00 0.00 0.00 81 1004.1
20260505170101 13 276 1.6 8.0 0.00 0.00 0.00 81 1004.0
20260505165542 13 244 3.2 8.0 0.00 0.00 0.00 82 1004.0
20260505165030 12 286 0.0 6.4 0.00 0.00 0.00 82 1004.1
20260505164501 12 291 1.6 6.4 0.00 0.00 0.00 83 1004.0
20260505164051 12 295 1.6 8.0 0.00 0.00 0.00 83 1004.0
20260505163537 12 236 3.2 8.0 0.00 0.00 0.00 84 1004.0
20260505163015 12 334 3.2 12.9 0.00 0.00 0.00 84 1003.9
20260505162557 12 191 1.6 14.5 0.00 0.00 0.00 84 1003.9
20260505162045 12 257 3.2 14.5 0.00 0.00 0.00 85 1003.9
20260505161505 12 355 0.0 9.7 0.00 0.00 0.00 86 1003.9
20260505161041 12 310 3.2 12.9 0.00 0.00 0.00 86 1003.9
20260505160516 11 288 4.8 12.9 0.00 0.00 0.00 86 1003.9
20260505153010 11 154 0.0 3.2 0.00 0.00 0.00 89 1003.8
20260505152559 11 159 0.0 3.2 0.00 0.00 0.00 89 1003.8
20260505152047 11 171 0.0 0.0 0.00 0.00 0.00 89 1003.7
20260505151518 11 174 0.0 0.0 0.00 0.00 0.00 89 1003.8
20260505151007 11 174 0.0 0.0 0.00 0.00 0.00 89 1003.7
20260505150556 11 174 0.0 0.0 0.00 0.00 0.00 89 1003.7
20260505140548 10 175 0.0 0.0 0.00 0.00 0.00 89 1003.3
20260505124519 10 175 0.0 0.0 0.00 0.00 0.00 89 1002.9
20260505124102 10 175 0.0 0.0 0.00 0.00 0.00 89 1002.9
20260505123549 10 175 0.0 0.0 0.00 0.00 0.00 89 1002.9
20260505123007 10 175 0.0 0.0 0.00 0.00 0.00 89 1002.9
20260505122558 9 175 0.0 0.0 0.00 0.00 0.00 89 1002.9
20260505122046 9 175 0.0 0.0 0.00 0.00 0.00 88 1002.9
20260505121601 9 175 0.0 0.0 0.00 0.00 0.00 88 1002.9
20260505121048 9 175 0.0 0.0 0.00 0.00 0.00 88 1002.8
20260505120537 9 175 0.0 0.0 0.00 0.00 0.00 88 1002.8
20260505120058 9 175 0.0 0.0 0.00 0.00 0.00 88 1002.8
20260505115546 9 175 0.0 0.0 0.00 0.00 0.00 88 1002.7
20260505115035 9 175 0.0 0.0 0.00 0.00 0.00 88 1002.8
20260505114505 9 175 0.0 0.0 0.00 0.00 0.00 88 1002.7
20260505114056 9 175 0.0 0.0 0.00 0.00 0.00 88 1002.7
20260505113546 9 175 0.0 0.0 0.00 0.00 0.00 88 1002.8
20260505113005 9 175 0.0 0.0 0.00 0.00 0.00 87 1002.6
20260505112555 9 175 0.0 0.0 0.00 0.00 0.00 87 1002.6
20260505112043 9 175 0.0 0.0 0.00 0.00 0.00 87 1002.6
20260505111513 9 175 0.0 0.0 0.00 0.00 0.00 87 1002.6
20260505111056 9 175 0.0 0.0 0.00 0.00 0.00 87 1002.5
20260505110542 9 175 0.0 0.0 0.00 0.00 0.00 87 1002.6
20260505102040 10 175 0.0 0.0 0.00 0.00 0.00 86 1002.2
20260505101602 10 175 0.0 0.0 0.00 0.00 0.00 86 1002.2
20260505101051 10 175 0.0 0.0 0.00 0.00 0.00 86 1002.3
20260505100538 10 175 0.0 0.0 0.00 0.00 0.00 85 1002.3
20260505100005 10 175 0.0 0.0 0.00 0.00 0.00 85 1002.2
20260505095556 10 175 0.0 0.0 0.00 0.00 0.00 85 1002.1
20260505095046 10 175 0.0 0.0 0.00 0.00 0.00 85 1002.1
20260505094504 10 175 0.0 0.0 0.00 0.00 0.00 85 1002.1
20260505094055 10 175 0.0 0.0 0.00 0.00 0.00 85 1002.0
20260505093543 10 175 0.0 0.0 0.00 0.00 0.00 85 1002.0
20260505093013 10 175 0.0 0.0 0.00 0.00 0.00 85 1002.0
20260505092503 10 175 0.0 0.0 0.00 0.00 0.00 85 1001.9
20260505092052 10 175 0.0 0.0 0.00 0.00 0.00 85 1002.0
20260505091509 10 175 0.0 0.0 0.00 0.00 0.00 85 1001.8
20260505091102 11 175 0.0 0.0 0.00 0.00 0.00 84 1001.8
20260505090547 11 175 0.0 0.0 0.00 0.00 0.00 84 1001.7
20260505090014 11 175 0.0 0.0 0.00 0.00 0.00 84 1001.6
20260505085556 11 175 0.0 0.0 0.00 0.00 0.00 84 1001.6
20260505085043 11 175 0.0 0.0 0.00 0.00 0.00 84 1001.5
20260505084503 11 175 0.0 0.0 0.00 0.00 0.00 84 1001.5
20260505084053 11 175 0.0 0.0 0.00 0.00 0.00 84 1001.4
20260505083541 11 175 0.0 0.0 0.00 0.00 0.00 85 1001.5
20260505083008 11 175 0.0 0.0 0.00 0.00 0.00 85 1001.5
20260505082554 11 175 0.0 0.0 0.00 0.00 0.00 85 1001.6
20260505082041 11 175 0.0 0.0 0.00 0.00 0.00 84 1001.5
20260505081510 12 175 0.0 0.0 0.00 0.00 0.00 85 1001.4
20260505081101 12 175 0.0 0.0 0.00 0.00 0.00 84 1001.4
20260505080549 12 175 0.0 0.0 0.00 0.00 0.00 84 1001.2
20260505080005 12 175 0.0 0.0 0.00 0.00 0.00 84 1001.1
20260505075552 12 175 0.0 0.0 0.00 0.00 0.00 84 1001.2
20260505075042 12 175 0.0 0.0 0.00 0.00 0.00 84 1001.1
20260505074503 12 175 0.0 0.0 0.00 0.00 0.00 84 1001.1
20260505074054 12 175 0.0 0.0 0.00 0.00 0.00 84 1001.0
20260505073542 12 175 0.0 0.0 0.00 0.00 0.00 84 1001.0
20260505073001 12 175 0.0 0.0 0.00 0.00 0.00 84 1001.0
20260505072551 12 175 0.0 0.0 0.00 0.00 0.00 84 1000.9
20260505072040 12 175 0.0 0.0 0.00 0.00 0.00 84 1000.9
20260505071503 12 175 0.0 0.0 0.00 0.00 0.00 84 1000.7
20260505071051 13 175 0.0 0.0 0.00 0.00 0.00 84 1000.7
20260505070538 13 175 0.0 0.0 0.00 0.00 0.00 84 1000.6
20260505070104 13 175 0.0 0.0 0.00 0.00 0.00 85 1000.6
20260505065549 13 175 0.0 0.0 0.00 0.00 0.00 84 1000.5
20260505065038 13 175 0.0 0.0 0.00 0.00 0.00 84 1000.5
20260505064558 13 175 0.0 0.0 0.00 0.00 0.00 83 1000.4
20260505064047 13 175 0.0 0.0 0.00 0.00 0.00 83 1000.3
20260505063535 13 175 0.0 0.0 0.00 0.00 0.00 83 1000.2
20260505063007 13 175 0.0 0.0 0.00 0.00 0.00 83 1000.2
20260505062558 13 175 0.0 0.0 0.00 0.00 0.00 83 1000.1
20260505062047 13 175 0.0 0.0 0.00 0.00 0.00 83 1000.1
20260505061504 13 175 0.0 0.0 0.00 0.00 0.00 82 1000.2
20260505061055 13 175 0.0 0.0 0.00 0.00 0.00 82 1000.1
20260505060543 13 175 0.0 0.0 0.00 0.00 0.00 82 1000.0
20260505060032 13 175 0.0 0.0 0.00 0.00 0.00 82 1000.2
20260505055603 14 175 0.0 0.0 0.00 0.00 0.00 81 1000.1
20260505055051 14 175 0.0 0.0 0.00 0.00 0.00 81 1000.1
20260505054512 14 175 0.0 0.0 0.00 0.00 0.00 81 1000.0
20260505054102 14 175 0.0 0.0 0.00 0.00 0.00 80 1000.0
20260505053548 14 175 0.0 0.0 0.00 0.00 0.00 80 1000.1
20260505053101 14 175 0.0 0.0 0.00 0.00 0.00 80 1000.0
20260505052548 15 175 0.0 0.0 0.00 0.00 0.00 80 999.9
20260505052036 15 175 0.0 0.0 0.00 0.00 0.00 79 1000.0
20260505051608 15 175 0.0 0.0 0.00 0.00 0.00 79 999.9
20260505051048 15 175 0.0 0.0 0.00 0.00 0.00 78 999.8
20260505050537 15 175 0.0 0.0 0.00 0.00 0.00 78 999.8
20260505050105 15 175 0.0 0.0 0.00 0.00 0.00 78 999.7
20260505041508 16 175 0.0 0.0 0.00 0.00 0.00 73 999.0
20260505041056 17 175 0.0 0.0 0.00 0.00 0.00 73 999.0
20260505040544 17 175 0.0 0.0 0.00 0.00 0.00 73 998.9
20260505040003 17 175 0.0 0.0 0.00 0.00 0.00 72 998.7
20260505035552 17 175 0.0 0.0 0.00 0.00 0.00 72 998.7
20260505035041 17 175 0.0 0.0 0.00 0.00 0.00 71 998.6
20260505034512 17 175 0.0 0.0 0.00 0.00 0.00 71 998.5
20260505034102 18 175 0.0 0.0 0.00 0.00 0.00 71 998.4
20260505033551 18 175 0.0 0.0 0.00 0.00 0.00 71 998.4
20260505033013 18 175 0.0 0.0 0.00 0.00 0.00 70 998.3
20260505032601 18 175 0.0 0.0 0.00 0.00 0.00 70 998.3
20260505032052 18 175 0.0 0.0 0.00 0.00 0.00 70 998.2
20260505031601 18 175 0.0 0.0 0.00 0.00 0.00 70 998.1
20260505031047 18 175 0.0 0.0 0.00 0.00 0.00 69 998.0
20260505030538 19 175 0.0 0.0 0.00 0.00 0.00 70 998.0
20260505030057 19 175 0.0 0.0 0.00 0.00 0.00 70 998.0